[[{"header":{"parameterUnit":"m.s-1","parameterCategory":2,"la1":30.2991,"la2":30.254,"lo1":-89.0895,"lo2":-89.0444,"dy":0.0017,"dx":0.0017,"nx":28,"ny":28,"refTime":"2024-07-19T21:00:00:Z","depth":"0","parameterNumber":2,"parameterNumberName":"U-component_of_CURRENTS"},"data":[0,0,0,0,0,0,0,0,0,0,0,0,0,0,0,0,0,0,0,0,0,0,0,0,0,0,0,0,0,0,0,0,0,0,0,0,0,0,0,0,0,0,0,0,0,0,0,0,0,0,0,0,0,0,0,0,0,0,0.3406,0.3407,0,0.351,0.3511,0.3511,0.3516,0.3515,0.3514,0.3513,0.3504,0.3505,0.3505,0,0,0,0,0,0,0,0,0,0,0,0,0,0.3188,0.3192,0.3406,0.3407,0.3409,0.351,0.3511,0.3512,0.3516,0.3515,0.3514,0.3513,0.3504,0.3505,0.3505,0,0,0,0,0,0,0,0,0,0,0,0,0,0.3283,0.3193,0.3405,0.3426,0.3429,0.3509,0.3511,0.3512,0.3516,0.3515,0.3513,0.3512,0.3504,0.3505,0.3506,0.3538,0,0,0.3508,0.3509,0,0,0,0,0,0,0,0,0.3277,0.329,0.3421,0.3425,0.3429,0.3502,0.3431,0.3516,0.3516,0.3479,0.3513,0.3511,0.3496,0.3498,0.3517,0.3537,0.3537,0.3508,0.3509,0.3509,0.351,0,0,0,0,0,0,0,0.3271,0.3286,0.3443,0.3423,0.3428,0.3423,0.3434,0.3447,0.3489,0.3482,0.3484,0.3502,0.3497,0.3516,0.3516,0.3537,0.3508,0.3509,0.351,0.351,0.3572,0.3573,0,0,0,0,0,0,0.327,0.328,0.344,0.3446,0.3353,0.3428,0.3441,0.3476,0.3491,0.3494,0.3503,0.3502,0.3515,0.3515,0.3516,0.3543,0.3509,0.351,0.3511,0.3571,0.3572,0.3574,0,0,0,0,0,0,0.3265,0.3283,0.3436,0.3367,0.3387,0.3434,0.3473,0.3479,0.3502,0.3509,0.3509,0.352,0.3514,0.3514,0.353,0.3543,0.3511,0.3511,0.357,0.3571,0.3573,0.3604,0,0,0,0,0,0,0.3258,0.3281,0.3307,0.3368,0.3391,0.3485,0.3475,0.3482,0.3517,0.3516,0.3524,0.3521,0.3513,0.3529,0.3531,0.3543,0.3512,0.3568,0.357,0.3572,0.3602,0.3607,0.3611,0,0,0,0,0,0.325,0.3296,0.3308,0.3327,0.3425,0.3487,0.3497,0.3522,0.3519,0.3536,0.3538,0.3521,0.3543,0.3531,0.3533,0.3546,0.3567,0.357,0.3572,0.36,0.3606,0.3611,0,0,0,0,0,0,0.3221,0.3304,0.3317,0.3387,0.3431,0.3488,0.3516,0.3531,0.3551,0.3546,0.354,0.3539,0.3556,0.3553,0.354,0.3571,0.3551,0.3555,0.3572,0.3577,0.3582,0.3622,0.3513,0,0,0,0,0,0.3227,0.328,0.3346,0.34,0.3425,0.347,0.3499,0.3517,0.3546,0.3555,0.3558,0.3562,0.3571,0.3575,0.3581,0.3604,0.3702,0.3613,0.3618,0.3622,0.3657,0.384,0.3867,0.3582,0.3582,0.3582,0,0,0.3233,0.3284,0.3316,0.3396,0.3434,0.347,0.3484,0.3535,0.3558,0.355,0.3575,0.358,0.3582,0.3602,0.3609,0.3599,0.3753,0.3625,0.3628,0.3662,0.3846,0.3875,0.39,0.3583,0.3583,0.3583,0,0,0.3259,0.3315,0.3357,0.3392,0.3454,0.3483,0.3498,0.3555,0.3572,0.3602,0.36,0.3627,0.3629,0.3649,0.3654,0.3695,0.3773,0.368,0.3737,0.3913,0.394,0.3964,0.413,0.4169,0.3682,0.3682,0.3682,0,0.3256,0.333,0.3376,0.3412,0.3452,0.3486,0.3529,0.3552,0.36,0.3638,0.3608,0.3678,0.366,0.3724,0.3722,0.3708,0.3828,0.371,0.3925,0.3951,0.3976,0.4139,0.4182,0.3684,0.3683,0.3683,0.3683,0,0.3307,0.3358,0.3388,0.3445,0.3482,0.3535,0.3572,0.3609,0.3629,0.3662,0.3733,0.3738,0.3799,0.3773,0.375,0.3898,0.3935,0.3913,0.3918,0.4008,0.4172,0.4217,0.3686,0.3686,0.3685,0.3685,0,0,0.3328,0.341,0.3415,0.3463,0.3514,0.3566,0.3599,0.3677,0.3749,0.3763,0.3878,0.3862,0.3905,0.3917,0.3912,0.4026,0.4269,0.4043,0.4051,0.4221,0.4693,0.4602,0.4642,0.4306,0.4314,0.432,0.474,0,0.3359,0.3439,0.3462,0.3542,0.3604,0.3639,0.3686,0.3747,0.3803,0.3914,0.3944,0.4035,0.3947,0.4008,0.4108,0.4241,0.4388,0.4159,0.457,0.4582,0.4504,0.469,0.4498,0.4847,0.4784,0.4791,0.4797,0,0.3407,0.3465,0.3547,0.365,0.3679,0.3716,0.3849,0.3896,0.402,0.4073,0.4168,0.4214,0.4364,0.4288,0.4597,0.4469,0.4599,0.4684,0.4703,0.4645,0.4574,0.4746,0.493,0.4762,0.4865,0.4859,0.4854,0,0.3455,0.3531,0.3613,0.3643,0.3745,0.3797,0.3851,0.3957,0.4046,0.4212,0.4322,0.4472,0.4607,0.4781,0.4905,0.4815,0.5268,0.5172,0.522,0.5215,0.5145,0.5119,0.5227,0.5448,0.5447,0.5446,0.5444,0,0.352,0.3594,0.3646,0.3708,0.383,0.3861,0.4008,0.4081,0.422,0.4341,0.4432,0.4574,0.4749,0.4974,0.5062,0.5294,0.542,0.5304,0.5345,0.5144,0.5115,0.5033,0.4909,0.5461,0.5458,0.5455,0.5452,0,0.3612,0.3629,0.3751,0.3842,0.3873,0.3971,0.41,0.4183,0.4322,0.4499,0.4569,0.4771,0.502,0.5185,0.5501,0.5518,0.5575,0.5767,0.5501,0.5499,0.5295,0.5177,0.5233,0.5091,0.5917,0.5917,0.5918,0,0.3694,0.3757,0.386,0.3894,0.3945,0.4064,0.4117,0.4238,0.4313,0.4582,0.466,0.4958,0.5087,0.5519,0.5628,0.5853,0.5629,0.5806,0.5558,0.5323,0.5227,0.4999,0.4857,0.5505,0.5502,0.55,0.5498,0,0.3852,0.3868,0.3932,0.3994,0.4046,0.4126,0.4204,0.428,0.4401,0.4543,0.471,0.485,0.5217,0.533,0.5622,0.5711,0.5487,0.576,0.5624,0.5017,0.4681,0.4547,0.5178,0.5477,0.5479,0.548,0.5482,0.5482,0.395,0.3998,0.4012,0.4065,0.41,0.4104,0.4123,0.418,0.428,0.4399,0.4622,0.478,0.5048,0.5384,0.5434,0.5397,0.5348,0.5277,0.5203,0.5033,0.4722,0.5283,0.5525,0.5527,0.5529,0.5531,0.5533,0,0.3997,0.3994,0.4055,0.4046,0.402,0.4064,0.4091,0.4051,0.4056,0.4247,0.4368,0.4633,0.477,0.4937,0.5028,0.4895,0.4685,0.4769,0.4411,0.4333,0.4976,0.4774,0.4729,0.4729,0.473,0.473,0.473,0.473,0.4007,0.4005,0.3998,0.3926,0.3908,0.3815,0.3791,0.3755,0.3833,0.3889,0.4014,0.4207,0.449,0.4653,0.455,0.4443,0.4087,0.3941,0.3917,0.4342,0.4381,0.4418,0.4202,0.4038,0.4037,0.3132,0.3124,0.3119]},{"header":{"parameterUnit":"m.s-1","parameterCategory":2,"la1":30.2991,"la2":30.254,"lo1":-89.0895,"lo2":-89.0444,"dy":0.0017,"dx":0.0017,"nx":28,"ny":28,"refTime":"2024-07-19T21:00:00:Z","depth":"0","parameterNumber":3,"parameterNumberName":"V-component_of_CURRENTS"},"data":[0,0,0,0,0,0,0,0,0,0,0,0,0,0,0,0,0,0,0,0,0,0,0,0,0,0,0,0,0,0,0,0,0,0,0,0,0,0,0,0,0,0,0,0,0,0,0,0,0,0,0,0,0,0,0,0,0,0,-0.0177,-0.0179,0,-0.0304,-0.0306,-0.0308,-0.0375,-0.0375,-0.0375,-0.0375,-0.0535,-0.0539,-0.0543,0,0,0,0,0,0,0,0,0,0,0,0,0,-0.0035,-0.0037,-0.0177,-0.0179,-0.018,-0.0304,-0.0306,-0.0308,-0.0375,-0.0375,-0.0375,-0.0375,-0.0533,-0.0538,-0.0544,0,0,0,0,0,0,0,0,0,0,0,0,0,-0.0125,-0.0038,-0.0177,-0.0227,-0.0233,-0.0304,-0.0306,-0.0309,-0.0375,-0.0375,-0.0375,-0.0375,-0.0532,-0.0538,-0.0544,-0.0585,0,0,-0.0564,-0.0567,0,0,0,0,0,0,0,0,-0.012,-0.013,-0.0218,-0.0224,-0.023,-0.0322,-0.0315,-0.0402,-0.0375,-0.0323,-0.0375,-0.0375,-0.0466,-0.0477,-0.0504,-0.0593,-0.06,-0.0565,-0.0568,-0.0571,-0.0573,0,0,0,0,0,0,0,-0.0113,-0.0125,-0.023,-0.022,-0.0227,-0.0258,-0.027,-0.0332,-0.0395,-0.0328,-0.0332,-0.0344,-0.0469,-0.0497,-0.0508,-0.0602,-0.0564,-0.057,-0.0574,-0.0577,-0.0741,-0.0742,0,0,0,0,0,0,-0.0092,-0.0119,-0.0225,-0.0233,-0.0172,-0.026,-0.0274,-0.0294,-0.0394,-0.0408,-0.0344,-0.0346,-0.0486,-0.05,-0.0514,-0.0554,-0.0571,-0.0577,-0.0581,-0.0741,-0.0741,-0.0742,0,0,0,0,0,0,-0.0089,-0.0101,-0.022,-0.0177,-0.0194,-0.0262,-0.0285,-0.0297,-0.0322,-0.0405,-0.0421,-0.0355,-0.0487,-0.0505,-0.0569,-0.0561,-0.058,-0.0586,-0.074,-0.0741,-0.0741,-0.0643,0,0,0,0,0,0,-0.0084,-0.0099,-0.0108,-0.0176,-0.0196,-0.026,-0.0285,-0.0299,-0.0328,-0.0333,-0.0421,-0.0436,-0.0488,-0.0559,-0.0575,-0.057,-0.0591,-0.0739,-0.074,-0.0741,-0.0646,-0.0641,-0.0636,0,0,0,0,0,-0.0079,-0.0095,-0.0108,-0.012,-0.0205,-0.026,-0.0273,-0.0322,-0.0328,-0.0343,-0.04,-0.0433,-0.0576,-0.0565,-0.0584,-0.058,-0.0739,-0.074,-0.0741,-0.0648,-0.0642,-0.0636,0,0,0,0,0,0,-0.0043,-0.0105,-0.012,-0.0156,-0.0199,-0.027,-0.029,-0.0315,-0.0372,-0.0376,-0.0445,-0.0465,-0.0522,-0.0568,-0.0553,-0.0633,-0.0661,-0.0666,-0.0584,-0.0579,-0.0574,-0.0464,-0.0596,0,0,0,0,0,-0.0036,-0.0062,-0.0121,-0.0148,-0.0165,-0.0222,-0.0249,-0.028,-0.0337,-0.0361,-0.042,-0.0484,-0.0544,-0.0571,-0.0641,-0.068,-0.0628,-0.0691,-0.0686,-0.0681,-0.0607,-0.0523,-0.05,-0.0745,-0.0745,-0.0745,0,0,-0.0028,-0.0065,-0.0081,-0.0141,-0.0177,-0.0197,-0.0239,-0.0277,-0.0286,-0.0371,-0.0406,-0.0477,-0.0555,-0.0605,-0.0632,-0.0638,-0.0593,-0.0683,-0.0678,-0.0604,-0.0521,-0.0496,-0.0473,-0.0746,-0.0746,-0.0746,0,0,-0.0016,-0.0058,-0.0066,-0.0097,-0.0146,-0.0183,-0.0187,-0.0253,-0.0273,-0.0324,-0.0381,-0.042,-0.0536,-0.0559,-0.0592,-0.0596,-0.0579,-0.065,-0.0522,-0.0443,-0.0419,-0.0398,-0.0316,-0.0288,-0.0635,-0.0635,-0.0634,0,-0.0001,-0.0012,-0.0077,-0.0086,-0.0087,-0.0166,-0.0152,-0.0201,-0.0278,-0.0252,-0.0324,-0.0397,-0.0494,-0.0477,-0.05,-0.0575,-0.0524,-0.0537,-0.0427,-0.0405,-0.0384,-0.0306,-0.0276,-0.063,-0.063,-0.0631,-0.0631,0,0.0013,0.0011,0.0004,-0.0024,-0.0044,-0.0051,-0.0106,-0.012,-0.0157,-0.0177,-0.0177,-0.0289,-0.0292,-0.0372,-0.045,-0.0362,-0.0371,-0.0435,-0.042,-0.0351,-0.0277,-0.0247,-0.0623,-0.0625,-0.0626,-0.0628,0,0,0.0056,0.0025,0.003,0.0076,0.0005,0.0017,-0.0002,0.0014,0.009,-0.0018,0.0099,-0.0059,-0.0064,-0.0098,-0.0189,-0.0155,-0.0027,-0.0226,-0.0224,-0.0104,0.0177,0.0075,0.0097,-0.0063,-0.0057,-0.0052,0.0167,0,0.0109,0.015,0.0101,0.0169,0.0212,0.0158,0.0182,0.0183,0.0171,0.0248,0.0177,0.0213,0.0022,0.005,0.0051,0.0012,0.006,-0.0077,0.006,0.0065,0.0,0.0131,0.0044,0.0225,0.0196,0.0201,0.0205,0,0.0178,0.0205,0.0287,0.0366,0.0382,0.0405,0.0518,0.0522,0.0571,0.0578,0.0605,0.0554,0.0591,0.0413,0.0449,0.0377,0.0306,0.025,0.0256,0.017,0.0021,0.015,0.028,-0.0031,0.025,0.0247,0.0243,0,0.0344,0.0366,0.0465,0.0476,0.0513,0.0583,0.061,0.0658,0.0734,0.0831,0.0929,0.0927,0.0989,0.0911,0.0735,0.0637,0.0785,0.0637,0.0489,0.0481,0.0445,0.0423,0.0336,0.0702,0.0702,0.0701,0.07,0,0.0471,0.0567,0.0567,0.0636,0.0795,0.0767,0.0951,0.0975,0.1076,0.1227,0.1143,0.1283,0.1121,0.1133,0.0931,0.0832,0.0953,0.0591,0.0559,0.0465,0.0443,0.0195,0.0045,0.0709,0.0707,0.0706,0.0704,0,0.0674,0.0659,0.0794,0.0853,0.0889,0.1018,0.1139,0.1261,0.134,0.155,0.1604,0.1641,0.166,0.1463,0.138,0.1123,0.0841,0.0916,0.081,0.0759,0.0272,0.0131,0.0149,0.0023,0.0839,0.0839,0.0838,0,0.0794,0.0876,0.0967,0.1034,0.1072,0.1226,0.1323,0.14,0.1523,0.1761,0.1887,0.1983,0.2044,0.1885,0.1475,0.1195,0.0891,0.0892,0.0653,0.0305,0.0127,0.003,-0.0086,0.065,0.0648,0.0646,0.0645,0,0.1006,0.1024,0.1096,0.1223,0.1335,0.1482,0.1628,0.1768,0.189,0.2077,0.232,0.2413,0.2243,0.1949,0.1518,0.1239,0.0655,0.0842,0.054,0.0051,-0.0101,-0.0262,0.0434,0.0629,0.0631,0.0632,0.0633,0.0633,0.1138,0.1213,0.1259,0.1393,0.1518,0.1693,0.1834,0.1996,0.2233,0.2517,0.2602,0.279,0.2323,0.1728,0.1324,0.048,0.0542,0.0178,0.0072,0.0034,-0.02,0.0453,0.0541,0.0542,0.0543,0.0543,0.0544,0,0.1241,0.1284,0.141,0.1544,0.169,0.1743,0.1987,0.2134,0.2404,0.2712,0.292,0.2801,0.2159,0.149,0.0389,-0.0199,-0.0411,-0.0505,-0.0678,-0.0736,-0.0098,-0.0234,-0.0381,-0.0381,-0.038,-0.038,-0.038,-0.0379,0.128,0.1369,0.1418,0.164,0.1752,0.196,0.2102,0.2347,0.2593,0.2937,0.3085,0.3176,0.2583,0.0695,-0.065,-0.0943,-0.1294,-0.1353,-0.1489,-0.1141,-0.1088,-0.1037,-0.1206,-0.1553,-0.1555,-0.2123,-0.2129,-0.2134]}],[{"header":{"parameterUnit":"m.s-1","parameterCategory":2,"la1":30.2991,"la2":30.254,"lo1":-89.0895,"lo2":-89.0444,"dy":0.0017,"dx":0.0017,"nx":28,"ny":28,"refTime":"2024-07-19T21:00:00:Z","depth":"2","parameterNumber":2,"parameterNumberName":"U-component_of_CURRENTS"},"data":[0,0,0,0,0,0,0,0,0,0,0,0,0,0,0,0,0,0,0,0,0,0,0,0,0,0,0,0,0,0,0,0,0,0,0,0,0,0,0,0,0,0,0,0,0,0,0,0,0,0,0,0,0,0,0,0,0,0,0.2615,0.2614,0,0.2546,0.2546,0.2545,0.2622,0.2624,0.2627,0.263,0.2793,0.2795,0.2797,0,0,0,0,0,0,0,0,0,0,0,0,0,0.2524,0.2528,0.2615,0.2614,0.2613,0.2546,0.2546,0.2545,0.2621,0.2625,0.2628,0.2631,0.2793,0.2795,0.2797,0,0,0,0,0,0,0,0,0,0,0,0,0,0.2524,0.2529,0.2615,0.2641,0.2642,0.2546,0.2546,0.2545,0.2621,0.2625,0.2629,0.2632,0.2792,0.2795,0.2798,0.2737,0,0,0.2806,0.2808,0,0,0,0,0,0,0,0,0.2524,0.2528,0.2638,0.2639,0.264,0.2594,0.2573,0.2619,0.262,0.2632,0.263,0.2634,0.2743,0.275,0.273,0.2744,0.2751,0.2807,0.2808,0.281,0.2811,0,0,0,0,0,0,0,0.2525,0.2529,0.2591,0.2636,0.2638,0.2556,0.2563,0.258,0.2673,0.2631,0.2636,0.2622,0.2747,0.2727,0.2735,0.2754,0.2807,0.2809,0.2811,0.2812,0.2941,0.2943,0,0,0,0,0,0,0.2538,0.2531,0.2593,0.2589,0.2587,0.2555,0.2564,0.2607,0.2668,0.2678,0.2619,0.2626,0.272,0.2731,0.2741,0.2875,0.281,0.2812,0.2814,0.2939,0.2941,0.2943,0,0,0,0,0,0,0.2537,0.2547,0.2596,0.2551,0.2552,0.2555,0.2601,0.2604,0.2612,0.2655,0.2672,0.2629,0.2723,0.2737,0.2845,0.2876,0.2814,0.2816,0.2937,0.294,0.2942,0.3015,0,0,0,0,0,0,0.2536,0.2548,0.2561,0.2555,0.2555,0.2607,0.2597,0.2599,0.2594,0.2604,0.2668,0.2686,0.2727,0.2841,0.2847,0.2879,0.2819,0.2935,0.2939,0.2942,0.3011,0.302,0.3028,0,0,0,0,0,0.2534,0.2547,0.2564,0.2569,0.2584,0.2609,0.2604,0.2615,0.2591,0.2629,0.2688,0.2685,0.2865,0.2845,0.2853,0.2885,0.2934,0.2938,0.2941,0.3007,0.3018,0.3028,0,0,0,0,0,0,0.252,0.2554,0.2574,0.2601,0.2634,0.2623,0.2636,0.2611,0.2666,0.2696,0.2716,0.2741,0.2838,0.2847,0.2824,0.293,0.2892,0.2897,0.2939,0.295,0.2958,0.303,0.2821,0,0,0,0,0,0.2518,0.2546,0.2579,0.2605,0.2637,0.2628,0.2622,0.2645,0.2685,0.271,0.2754,0.2802,0.2843,0.2893,0.294,0.2997,0.305,0.3019,0.3027,0.3035,0.3099,0.3213,0.324,0.2956,0.2956,0.2956,0,0,0.2539,0.2536,0.2568,0.2602,0.2632,0.2673,0.2642,0.2684,0.2711,0.2721,0.2804,0.2837,0.2864,0.2955,0.2995,0.298,0.3134,0.304,0.3046,0.3107,0.322,0.3249,0.3274,0.2958,0.2958,0.2958,0,0,0.2561,0.2596,0.2634,0.2661,0.2699,0.2707,0.2723,0.276,0.2795,0.2856,0.2873,0.296,0.2993,0.3063,0.3079,0.3157,0.317,0.3131,0.3247,0.3355,0.3381,0.3404,0.3474,0.3504,0.3143,0.3143,0.3143,0,0.2577,0.263,0.2648,0.2677,0.271,0.2729,0.2794,0.2808,0.2869,0.2935,0.2918,0.3035,0.3054,0.3169,0.3207,0.3182,0.3233,0.32,0.3371,0.3395,0.3418,0.3485,0.3516,0.3147,0.3146,0.3146,0.3146,0,0.2631,0.2676,0.271,0.2768,0.28,0.2872,0.2913,0.2978,0.2996,0.3027,0.3163,0.3206,0.3296,0.3278,0.3267,0.3423,0.3401,0.3361,0.335,0.3452,0.3514,0.3545,0.3153,0.3151,0.315,0.3149,0,0,0.2685,0.2745,0.2756,0.2816,0.287,0.2919,0.2997,0.3108,0.3185,0.3251,0.3367,0.3438,0.3485,0.3511,0.3505,0.3598,0.3766,0.356,0.3564,0.3642,0.3999,0.3789,0.3802,0.3757,0.3763,0.3769,0.3966,0,0.2747,0.2817,0.2824,0.2937,0.3019,0.3069,0.3132,0.3225,0.3299,0.3419,0.3497,0.3597,0.3554,0.3609,0.3703,0.3764,0.3859,0.3717,0.3883,0.3888,0.3699,0.3836,0.3531,0.3667,0.3997,0.4002,0.4006,0,0.2819,0.2846,0.2963,0.3069,0.3116,0.3172,0.3339,0.3398,0.3551,0.3615,0.3754,0.3793,0.3966,0.3874,0.4098,0.4011,0.4036,0.4061,0.4068,0.3886,0.3738,0.3625,0.3711,0.4058,0.4054,0.405,0.4047,0,0.2866,0.2964,0.3062,0.3097,0.3199,0.3287,0.3358,0.3496,0.3564,0.3769,0.384,0.4037,0.4119,0.4241,0.4272,0.4223,0.4473,0.4398,0.4237,0.4221,0.4007,0.3959,0.4567,0.4566,0.4566,0.4565,0.4565,0,0.2928,0.3006,0.3106,0.3151,0.326,0.3355,0.3491,0.3579,0.3728,0.3814,0.3956,0.4043,0.4217,0.4334,0.4376,0.4408,0.4566,0.4319,0.4286,0.4012,0.3965,0.4337,0.4308,0.4573,0.4571,0.457,0.4568,0,0.2934,0.3018,0.3106,0.3231,0.328,0.3354,0.3486,0.3565,0.374,0.3853,0.3921,0.4109,0.4269,0.4381,0.4564,0.4497,0.4571,0.4519,0.4161,0.408,0.4227,0.42,0.4429,0.4424,0.4419,0.4416,0.4413,0,0.2927,0.2982,0.31,0.3125,0.3175,0.3298,0.335,0.3532,0.3599,0.3855,0.3884,0.4101,0.414,0.4333,0.4337,0.4399,0.4488,0.4101,0.3942,0.4284,0.4229,0.4208,0.4186,0.3693,0.3684,0.3677,0.3671,0,0.2839,0.2895,0.2933,0.2993,0.3059,0.313,0.3245,0.3296,0.3504,0.3618,0.3766,0.3846,0.3993,0.3915,0.3961,0.3946,0.4076,0.3949,0.4484,0.3727,0.3593,0.3536,0.354,0.3608,0.3614,0.3619,0.3622,0.3625,0.2713,0.27,0.2752,0.2804,0.2876,0.2934,0.2955,0.3086,0.3181,0.3279,0.3461,0.3479,0.3559,0.3464,0.3414,0.3425,0.3673,0.354,0.3563,0.3593,0.3426,0.3286,0.3213,0.3216,0.322,0.3223,0.3226,0,0.2485,0.2516,0.2547,0.2594,0.2608,0.2747,0.2835,0.2822,0.2874,0.2972,0.3026,0.2785,0.2759,0.2901,0.2812,0.2805,0.2792,0.2712,0.2695,0.276,0.2818,0.261,0.2182,0.2178,0.2175,0.2172,0,0,0.2344,0.2292,0.2333,0.2304,0.2383,0.2372,0.2409,0.2425,0.2474,0.2373,0.2373,0.2517,0.2744,0.2385,0.2374,0.2274,0.2482,0.2184,0.3026,0.3067,0.312,0.3309,0.3063,0,0,0,0,0]},{"header":{"parameterUnit":"m.s-1","parameterCategory":2,"la1":30.2991,"la2":30.254,"lo1":-89.0895,"lo2":-89.0444,"dy":0.0017,"dx":0.0017,"nx":28,"ny":28,"refTime":"2024-07-19T21:00:00:Z","depth":"2","parameterNumber":3,"parameterNumberName":"V-component_of_CURRENTS"},"data":[0,0,0,0,0,0,0,0,0,0,0,0,0,0,0,0,0,0,0,0,0,0,0,0,0,0,0,0,0,0,0,0,0,0,0,0,0,0,0,0,0,0,0,0,0,0,0,0,0,0,0,0,0,0,0,0,0,0,-0.0198,-0.0198,0,-0.0188,-0.0188,-0.0189,-0.0278,-0.028,-0.0282,-0.0284,-0.0598,-0.0604,-0.0611,0,0,0,0,0,0,0,0,0,0,0,0,0,-0.0166,-0.0167,-0.0198,-0.0198,-0.0197,-0.0188,-0.0188,-0.0189,-0.0278,-0.028,-0.0283,-0.0285,-0.0596,-0.0604,-0.0612,0,0,0,0,0,0,0,0,0,0,0,0,0,-0.0177,-0.0168,-0.0198,-0.0235,-0.0238,-0.0188,-0.0188,-0.0189,-0.0278,-0.028,-0.0283,-0.0286,-0.0593,-0.0603,-0.0613,-0.0617,0,0,-0.0643,-0.0647,0,0,0,0,0,0,0,0,-0.0176,-0.0179,-0.0231,-0.0233,-0.0236,-0.0232,-0.0291,-0.0346,-0.0277,-0.0269,-0.0284,-0.0287,-0.0499,-0.0517,-0.0513,-0.0632,-0.0645,-0.0644,-0.065,-0.0654,-0.0657,0,0,0,0,0,0,0,-0.0175,-0.0179,-0.0201,-0.023,-0.0232,-0.0207,-0.0214,-0.0301,-0.038,-0.027,-0.0275,-0.0263,-0.0504,-0.0503,-0.0522,-0.065,-0.0643,-0.0652,-0.0658,-0.0662,-0.0927,-0.0929,0,0,0,0,0,0,-0.0167,-0.0179,-0.0201,-0.02,-0.0205,-0.0206,-0.0214,-0.0235,-0.0372,-0.0391,-0.026,-0.0267,-0.0485,-0.0511,-0.0534,-0.0665,-0.0654,-0.0663,-0.0669,-0.0926,-0.0928,-0.0929,0,0,0,0,0,0,-0.0167,-0.0171,-0.0201,-0.0181,-0.0183,-0.0204,-0.0227,-0.0234,-0.0245,-0.0359,-0.0387,-0.0267,-0.0488,-0.052,-0.0669,-0.0674,-0.0668,-0.0677,-0.0925,-0.0927,-0.0928,-0.0853,0,0,0,0,0,0,-0.0167,-0.0172,-0.017,-0.0182,-0.0184,-0.0204,-0.0224,-0.0231,-0.0229,-0.0239,-0.0374,-0.0404,-0.0493,-0.0654,-0.0679,-0.0688,-0.0684,-0.0924,-0.0926,-0.0928,-0.0854,-0.0852,-0.085,0,0,0,0,0,-0.0166,-0.0165,-0.0171,-0.0172,-0.0188,-0.0203,-0.0204,-0.023,-0.0227,-0.0247,-0.0358,-0.0401,-0.0683,-0.0664,-0.0693,-0.0704,-0.0923,-0.0925,-0.0928,-0.0855,-0.0852,-0.085,0,0,0,0,0,0,-0.015,-0.0173,-0.0181,-0.0187,-0.0204,-0.0217,-0.0232,-0.0219,-0.0304,-0.0343,-0.0433,-0.0474,-0.0597,-0.0664,-0.0639,-0.0787,-0.0802,-0.081,-0.0736,-0.0735,-0.0733,-0.0637,-0.0693,0,0,0,0,0,-0.0139,-0.0157,-0.0171,-0.0179,-0.02,-0.0206,-0.0205,-0.0228,-0.0295,-0.0331,-0.0424,-0.0532,-0.0619,-0.0691,-0.0793,-0.0882,-0.0874,-0.0903,-0.0901,-0.0899,-0.0841,-0.0824,-0.0812,-0.0937,-0.0937,-0.0937,0,0,-0.0148,-0.0145,-0.0166,-0.0175,-0.0204,-0.0221,-0.022,-0.0251,-0.0259,-0.036,-0.045,-0.0538,-0.0643,-0.0752,-0.0809,-0.0817,-0.0874,-0.0902,-0.0899,-0.0841,-0.0825,-0.0812,-0.08,-0.0939,-0.0938,-0.0938,0,0,-0.0155,-0.0175,-0.0194,-0.0205,-0.0227,-0.0239,-0.0243,-0.0284,-0.0315,-0.0393,-0.0461,-0.0542,-0.0699,-0.0755,-0.08,-0.0839,-0.086,-0.0887,-0.0805,-0.0791,-0.0778,-0.0767,-0.0785,-0.0776,-0.0888,-0.0888,-0.0888,0,-0.0154,-0.0164,-0.0199,-0.0205,-0.0201,-0.0245,-0.0253,-0.0285,-0.0363,-0.0369,-0.0437,-0.0567,-0.0679,-0.0719,-0.0748,-0.0827,-0.0831,-0.0805,-0.078,-0.0769,-0.0758,-0.078,-0.077,-0.0885,-0.0885,-0.0886,-0.0886,0,-0.0174,-0.0172,-0.0193,-0.0216,-0.0225,-0.025,-0.0289,-0.0323,-0.0357,-0.0363,-0.0425,-0.0552,-0.0598,-0.0663,-0.0727,-0.0706,-0.074,-0.0773,-0.0768,-0.0739,-0.0767,-0.0758,-0.088,-0.0881,-0.0882,-0.0883,0,0,-0.0189,-0.0201,-0.0203,-0.0184,-0.0225,-0.0226,-0.0267,-0.0273,-0.0247,-0.0345,-0.0302,-0.0444,-0.0453,-0.0499,-0.0577,-0.0582,-0.0556,-0.0639,-0.064,-0.0624,-0.0538,-0.0615,-0.0614,-0.0579,-0.0576,-0.0574,-0.0602,0,-0.0187,-0.0165,-0.0179,-0.0165,-0.0163,-0.0195,-0.0197,-0.0211,-0.0244,-0.0238,-0.0302,-0.0323,-0.0407,-0.0422,-0.0432,-0.051,-0.0522,-0.0546,-0.0595,-0.0596,-0.0638,-0.0601,-0.0555,-0.0578,-0.0593,-0.0592,-0.0591,0,-0.0184,-0.0157,-0.0132,-0.0085,-0.0091,-0.0079,-0.0051,-0.0059,-0.0067,-0.0089,-0.0092,-0.0142,-0.0149,-0.0238,-0.0285,-0.0294,-0.0389,-0.0464,-0.0468,-0.0537,-0.0653,-0.0605,-0.0562,-0.0576,-0.0578,-0.0579,-0.058,0,-0.0131,-0.0109,-0.0066,-0.0061,-0.0041,-0.0012,0.0004,0.0004,0.0012,0.0036,0.0044,0.0037,0.0014,-0.0041,-0.021,-0.0225,-0.0289,-0.0335,-0.0495,-0.0505,-0.0468,-0.0478,-0.0357,-0.0357,-0.0357,-0.0357,-0.0357,0,-0.0098,-0.0064,-0.0022,0.0002,0.0061,0.0073,0.0132,0.0135,0.0164,0.0209,0.0156,0.0172,0.0065,-0.0012,-0.0136,-0.0285,-0.0225,-0.0441,-0.0493,-0.0454,-0.0461,-0.0455,-0.0466,-0.0358,-0.0358,-0.0357,-0.0357,0,-0.0081,-0.0047,0.0001,0.0058,0.0085,0.0126,0.0183,0.0231,0.0261,0.032,0.0338,0.0283,0.0229,0.0071,-0.006,-0.0215,-0.0342,-0.0435,-0.0405,-0.0452,-0.0581,-0.0588,-0.0539,-0.0542,-0.0544,-0.0546,-0.0547,0,-0.0085,-0.0047,0.0024,0.0063,0.0087,0.0158,0.0208,0.0261,0.0319,0.0387,0.0425,0.0378,0.0382,0.014,-0.0114,-0.0315,-0.0379,-0.0492,-0.0503,-0.0531,-0.0588,-0.0592,-0.0597,-0.0448,-0.0449,-0.0449,-0.0449,0,-0.0095,-0.006,-0.0016,0.0072,0.0142,0.0208,0.0306,0.0379,0.0476,0.0574,0.0701,0.0729,0.0465,0.0281,-0.01,-0.0261,-0.0434,-0.051,-0.0504,-0.0427,-0.0452,-0.0506,-0.0512,-0.0453,-0.0453,-0.0452,-0.0452,-0.0452,-0.0105,-0.0076,0.0019,0.0101,0.0175,0.0315,0.044,0.0583,0.0767,0.0985,0.092,0.0994,0.064,0.0244,-0.009,-0.046,-0.0446,-0.057,-0.0565,-0.056,-0.0562,-0.0591,-0.0619,-0.062,-0.062,-0.0621,-0.0621,0,-0.0078,-0.0015,0.0051,0.0203,0.0326,0.0346,0.0548,0.0748,0.1058,0.1166,0.1318,0.1038,0.0757,0.0366,-0.0166,-0.0513,-0.0517,-0.0623,-0.0538,-0.0533,-0.0528,-0.0526,-0.0576,-0.0576,-0.0577,-0.0578,0,0,-0.0048,0.0059,0.0119,0.0351,0.0448,0.068,0.0832,0.113,0.1298,0.1496,0.1509,0.1423,0.0905,0.0528,0.0058,-0.0238,-0.03,-0.0305,-0.0307,-0.0144,-0.0135,-0.047,-0.0458,0,0,0,0,0]}],[{"header":{"parameterUnit":"m.s-1","parameterCategory":2,"la1":30.2991,"la2":30.254,"lo1":-89.0895,"lo2":-89.0444,"dy":0.0017,"dx":0.0017,"nx":28,"ny":28,"refTime":"2024-07-19T21:00:00:Z","depth":"4","parameterNumber":2,"parameterNumberName":"U-component_of_CURRENTS"},"data":[0,0,0,0,0,0,0,0,0,0,0,0,0,0,0,0,0,0,0,0,0,0,0,0,0,0,0,0,0,0,0,0,0,0,0,0,0,0,0,0,0,0,0,0,0,0,0,0,0,0,0,0,0,0,0,0,0,0,0.1212,0.1212,0,0.126,0.126,0.126,0.1328,0.1329,0.133,0.1332,0.1394,0.1395,0.1395,0,0,0,0,0,0,0,0,0,0,0,0,0,0.12,0.12,0.1212,0.1212,0.1213,0.126,0.126,0.1261,0.1328,0.1329,0.1331,0.1332,0.1394,0.1395,0.1395,0,0,0,0,0,0,0,0,0,0,0,0,0,0.1221,0.12,0.1212,0.1253,0.1257,0.1259,0.126,0.1261,0.1327,0.1329,0.1331,0.1333,0.1394,0.1395,0.1396,0.1362,0,0,0.1398,0.1398,0,0,0,0,0,0,0,0,0.122,0.1221,0.1246,0.125,0.1255,0.1291,0.1279,0.1296,0.1327,0.1299,0.1332,0.1334,0.1361,0.1364,0.1367,0.1365,0.1368,0.1398,0.1398,0.1399,0.1399,0,0,0,0,0,0,0,0.1218,0.122,0.1229,0.1247,0.1252,0.1277,0.1282,0.1283,0.1318,0.1302,0.1307,0.1314,0.1363,0.1366,0.1369,0.1369,0.1398,0.1399,0.1399,0.1399,0.1442,0.1443,0,0,0,0,0,0,0.1211,0.1218,0.1228,0.1231,0.1243,0.1276,0.1281,0.1276,0.1318,0.1326,0.1312,0.1317,0.1364,0.1368,0.1371,0.1456,0.1399,0.1399,0.14,0.1441,0.1442,0.1443,0,0,0,0,0,0,0.1211,0.1211,0.1226,0.1228,0.1231,0.1274,0.1268,0.1276,0.1311,0.1326,0.1335,0.1343,0.1366,0.137,0.1405,0.1455,0.14,0.14,0.1441,0.1442,0.1443,0.1548,0,0,0,0,0,0,0.121,0.121,0.1215,0.1226,0.1231,0.1248,0.1267,0.1276,0.1311,0.1318,0.1354,0.136,0.1367,0.1404,0.1406,0.1455,0.1401,0.144,0.1441,0.1442,0.1543,0.1552,0.156,0,0,0,0,0,0.1209,0.119,0.1214,0.1217,0.1232,0.1249,0.1254,0.1289,0.1311,0.1327,0.1358,0.1361,0.1414,0.1405,0.1407,0.1458,0.1439,0.1441,0.1442,0.154,0.1551,0.156,0,0,0,0,0,0,0.1176,0.1196,0.1223,0.121,0.1244,0.1261,0.1274,0.13,0.1335,0.1352,0.1367,0.1375,0.1424,0.1412,0.1402,0.1469,0.1427,0.1429,0.1501,0.1511,0.1519,0.1528,0.1402,0,0,0,0,0,0.1173,0.1179,0.1205,0.1204,0.1218,0.1254,0.1269,0.13,0.1326,0.1345,0.1379,0.1403,0.1423,0.1446,0.1456,0.1489,0.1492,0.152,0.1528,0.1535,0.1541,0.1608,0.1625,0.1448,0.1448,0.1448,0,0,0.1159,0.1175,0.1177,0.1201,0.1227,0.1251,0.1268,0.13,0.1342,0.1343,0.1414,0.1432,0.1434,0.1483,0.1504,0.1489,0.1581,0.1537,0.1544,0.1546,0.1612,0.163,0.1646,0.1449,0.1449,0.1449,0,0,0.1139,0.1152,0.1158,0.1183,0.1232,0.126,0.1277,0.1324,0.137,0.1425,0.1444,0.1493,0.1523,0.1552,0.1561,0.1611,0.1618,0.1617,0.168,0.1747,0.1763,0.1777,0.1786,0.18,0.1629,0.1629,0.1629,0,0.1127,0.1136,0.1164,0.1181,0.1206,0.1268,0.1291,0.1337,0.1402,0.1448,0.1461,0.1543,0.1555,0.1615,0.1647,0.1635,0.1657,0.1651,0.1762,0.1776,0.1789,0.1795,0.1809,0.1634,0.1634,0.1633,0.1633,0,0.1114,0.1133,0.1135,0.1187,0.122,0.1246,0.1315,0.1388,0.1455,0.1501,0.1594,0.1625,0.1681,0.1695,0.1694,0.1791,0.177,0.1765,0.1747,0.1814,0.1814,0.1827,0.1642,0.164,0.1639,0.1637,0,0,0.1054,0.1116,0.112,0.1157,0.1227,0.1254,0.1345,0.1437,0.1515,0.1593,0.1669,0.1741,0.1784,0.1795,0.1815,0.1876,0.1985,0.1876,0.1877,0.19,0.2111,0.2013,0.2017,0.2024,0.2027,0.203,0.2068,0,0.1045,0.1082,0.1116,0.117,0.12,0.1287,0.1362,0.1461,0.1564,0.1654,0.1715,0.1786,0.1813,0.186,0.1933,0.196,0.2028,0.1973,0.2026,0.2026,0.1948,0.2033,0.204,0.2078,0.2081,0.2083,0.2085,0,0.1016,0.1059,0.1101,0.1192,0.1212,0.1264,0.1423,0.1492,0.1631,0.172,0.1825,0.1859,0.1954,0.1961,0.2091,0.2064,0.2111,0.2129,0.2131,0.2014,0.1955,0.1998,0.2108,0.2106,0.2105,0.2103,0.2102,0,0.0974,0.1041,0.1085,0.1107,0.1219,0.1288,0.1366,0.1521,0.1607,0.1764,0.1845,0.1948,0.2024,0.2094,0.2167,0.2147,0.2282,0.2246,0.2196,0.2187,0.2215,0.22,0.2358,0.2358,0.2358,0.2358,0.2358,0,0.0931,0.0962,0.108,0.1101,0.1185,0.127,0.1387,0.1509,0.1656,0.175,0.1874,0.1963,0.208,0.216,0.219,0.2239,0.2319,0.2221,0.221,0.2251,0.224,0.2223,0.2207,0.2359,0.2359,0.2359,0.2358,0,0.0849,0.0918,0.0973,0.1108,0.1161,0.1219,0.1385,0.1464,0.1646,0.1775,0.1822,0.2006,0.2134,0.2214,0.2325,0.2282,0.231,0.2317,0.234,0.2327,0.2148,0.2137,0.2224,0.2221,0.2219,0.2217,0.2215,0,0.0806,0.0829,0.0963,0.1004,0.1066,0.1179,0.1254,0.1447,0.1532,0.1788,0.1815,0.2009,0.2121,0.2176,0.228,0.2324,0.2327,0.2294,0.2234,0.2164,0.2145,0.2137,0.2129,0.2212,0.2211,0.2211,0.221,0,0.0723,0.0772,0.0816,0.0916,0.0998,0.1078,0.1205,0.1269,0.1484,0.1658,0.1802,0.1892,0.2043,0.212,0.2207,0.2227,0.2269,0.227,0.2273,0.2217,0.215,0.2132,0.2126,0.2202,0.2203,0.2204,0.2204,0,0.0654,0.0661,0.0732,0.0809,0.089,0.095,0.1044,0.1166,0.1284,0.158,0.1619,0.1842,0.2019,0.2074,0.2128,0.2168,0.2135,0.2037,0.2052,0.2062,0.2,0.189,0.1873,0,0,0,0,0,0.0585,0.0586,0.0631,0.0704,0.0772,0.0839,0.0988,0.1087,0.131,0.1375,0.151,0.1648,0.1801,0.1894,0.1909,0.2047,0.212,0.2051,0.2007,0.2159,0.2168,0.2114,0,0,0,0,0,0,0.0535,0.0559,0.0586,0.0594,0.0627,0.0706,0.08,0.0956,0.1008,0.1247,0.1336,0.1527,0.1687,0.1783,0.1869,0.1903,0.1838,0.2194,0.2189,0.2153,0.2162,0.2169,0.2117,0,0,0,0,0]},{"header":{"parameterUnit":"m.s-1","parameterCategory":2,"la1":30.2991,"la2":30.254,"lo1":-89.0895,"lo2":-89.0444,"dy":0.0017,"dx":0.0017,"nx":28,"ny":28,"refTime":"2024-07-19T21:00:00:Z","depth":"4","parameterNumber":3,"parameterNumberName":"V-component_of_CURRENTS"},"data":[0,0,0,0,0,0,0,0,0,0,0,0,0,0,0,0,0,0,0,0,0,0,0,0,0,0,0,0,0,0,0,0,0,0,0,0,0,0,0,0,0,0,0,0,0,0,0,0,0,0,0,0,0,0,0,0,0,0,0.017,0.0171,0,0.0174,0.0174,0.0174,0.0134,0.0133,0.0132,0.0131,0.0091,0.0091,0.0091,0,0,0,0,0,0,0,0,0,0,0,0,0,0.0086,0.0088,0.017,0.0171,0.0171,0.0174,0.0174,0.0174,0.0134,0.0133,0.0132,0.0131,0.0091,0.0091,0.0091,0,0,0,0,0,0,0,0,0,0,0,0,0,0.0108,0.0088,0.017,0.0152,0.0151,0.0174,0.0174,0.0174,0.0134,0.0133,0.0131,0.013,0.0091,0.0091,0.0091,0.0118,0,0,0.009,0.009,0,0,0,0,0,0,0,0,0.0107,0.0111,0.0155,0.0154,0.0152,0.0154,0.013,0.0154,0.0135,0.0139,0.0131,0.0129,0.011,0.0108,0.011,0.0116,0.0114,0.009,0.009,0.009,0.0089,0,0,0,0,0,0,0,0.0105,0.011,0.017,0.0155,0.0154,0.013,0.0132,0.0134,0.013,0.0138,0.0136,0.0139,0.0108,0.0111,0.0109,0.0114,0.009,0.009,0.0089,0.0089,0.0146,0.0148,0,0,0,0,0,0,0.0113,0.011,0.017,0.0171,0.0127,0.0133,0.0135,0.0153,0.0131,0.0127,0.0141,0.0138,0.0112,0.0109,0.0107,0.0129,0.009,0.0089,0.0089,0.0145,0.0147,0.0149,0,0,0,0,0,0,0.0111,0.0119,0.017,0.014,0.0145,0.0136,0.0157,0.0154,0.0153,0.0134,0.0128,0.0143,0.0111,0.0108,0.012,0.0127,0.0089,0.0089,0.0143,0.0145,0.0148,0.0177,0,0,0,0,0,0,0.0109,0.0119,0.0136,0.0141,0.0147,0.0195,0.0159,0.0155,0.0159,0.0155,0.0134,0.0129,0.0109,0.0121,0.012,0.0126,0.0089,0.0141,0.0144,0.0147,0.0174,0.018,0.0185,0,0,0,0,0,0.0106,0.0157,0.0138,0.0145,0.0172,0.0197,0.0198,0.0184,0.016,0.0175,0.016,0.0129,0.014,0.0123,0.0121,0.0126,0.0139,0.0143,0.0147,0.0171,0.0179,0.0185,0,0,0,0,0,0,0.0139,0.0158,0.0137,0.0191,0.019,0.019,0.0215,0.0191,0.0191,0.0186,0.0153,0.0149,0.016,0.0152,0.0133,0.0156,0.0134,0.0138,0.0153,0.016,0.0166,0.0144,0.0089,0,0,0,0,0,0.0151,0.0186,0.0187,0.0226,0.0235,0.0218,0.0226,0.0211,0.0211,0.0208,0.0194,0.0184,0.0178,0.0175,0.0176,0.0192,0.0122,0.0197,0.0203,0.0208,0.0192,0.0074,0.0065,0.0161,0.0161,0.0161,0,0,0.0174,0.0187,0.0206,0.0233,0.0235,0.0257,0.0221,0.0243,0.0247,0.0206,0.0223,0.0207,0.019,0.0203,0.0207,0.0193,0.0153,0.0212,0.0216,0.0197,0.0077,0.0066,0.0057,0.0164,0.0163,0.0163,0,0,0.0234,0.025,0.0291,0.0298,0.0305,0.0297,0.0303,0.0304,0.0295,0.0309,0.0274,0.0258,0.0271,0.0242,0.0231,0.0273,0.0189,0.0286,0.029,0.0177,0.0166,0.0156,0.008,0.0063,0.0286,0.0286,0.0286,0,0.0255,0.0298,0.0305,0.0339,0.0345,0.0317,0.0343,0.0342,0.034,0.0322,0.0324,0.0289,0.0282,0.025,0.0271,0.028,0.021,0.026,0.0178,0.0166,0.0154,0.0079,0.0059,0.0288,0.0288,0.0288,0.0287,0,0.0331,0.0358,0.0391,0.0413,0.0425,0.0449,0.044,0.0439,0.042,0.0394,0.0366,0.0346,0.031,0.0316,0.0309,0.0239,0.0216,0.0194,0.0145,0.0145,0.0068,0.0047,0.0291,0.029,0.0289,0.0289,0,0,0.0385,0.0432,0.0439,0.0439,0.0459,0.0471,0.0486,0.0469,0.0447,0.0434,0.0392,0.0382,0.0338,0.0323,0.0296,0.0211,0.0096,0.0176,0.0169,0.0076,-0.0146,-0.0073,-0.009,0.0041,0.0037,0.0034,-0.016,0,0.0427,0.0486,0.0504,0.0537,0.0554,0.0536,0.0545,0.0521,0.0493,0.0454,0.0391,0.0361,0.035,0.0327,0.0238,0.0137,0.0037,0.0151,-0.011,-0.0117,-0.0076,-0.0114,0.0021,-0.0176,-0.0181,-0.0185,-0.0188,0,0.0473,0.0502,0.0551,0.0557,0.0567,0.0588,0.0559,0.0568,0.0506,0.0477,0.041,0.0359,0.0266,0.0247,0.003,0.0098,-0.0025,-0.0114,-0.0125,-0.0091,-0.0086,-0.018,-0.0227,-0.0224,-0.0221,-0.0219,-0.0216,0,0.0468,0.052,0.055,0.0561,0.0584,0.0593,0.0603,0.0567,0.057,0.0486,0.0462,0.0326,0.0271,0.0088,-0.0052,-0.004,-0.0307,-0.0319,-0.0381,-0.0376,-0.04,-0.0387,-0.0523,-0.0523,-0.0522,-0.0522,-0.0521,0,0.0484,0.0502,0.0551,0.0572,0.0599,0.0606,0.063,0.0606,0.058,0.0578,0.0479,0.0431,0.0219,0.0069,-0.0086,-0.0276,-0.0344,-0.0399,-0.0435,-0.0373,-0.0355,-0.0414,-0.0399,-0.0529,-0.0527,-0.0526,-0.0525,0,0.0468,0.05,0.0542,0.0588,0.0604,0.0629,0.0691,0.0702,0.0664,0.0654,0.0631,0.0483,0.0293,0.0093,-0.02,-0.0295,-0.0499,-0.0561,-0.0456,-0.048,-0.0491,-0.0471,-0.0671,-0.0671,-0.067,-0.067,-0.0669,0,0.0467,0.0492,0.0571,0.0612,0.0645,0.0696,0.074,0.0745,0.0765,0.0695,0.0685,0.0505,0.0395,0.0044,-0.0177,-0.0485,-0.0517,-0.0623,-0.0582,-0.0498,-0.0514,-0.0495,-0.0477,-0.0669,-0.0668,-0.0668,-0.0668,0,0.048,0.0516,0.0562,0.0649,0.0715,0.0783,0.0843,0.0858,0.0858,0.0828,0.0723,0.0545,0.0333,0.0063,-0.0165,-0.0385,-0.0551,-0.0619,-0.0622,-0.0584,-0.0497,-0.0509,-0.0491,-0.0666,-0.0667,-0.0667,-0.0667,0,0.0503,0.0537,0.0614,0.0681,0.0769,0.0837,0.0871,0.0892,0.0902,0.0829,0.079,0.056,0.0416,0.0112,-0.0101,-0.0297,-0.0353,-0.0411,-0.0426,-0.0431,-0.0281,-0.013,-0.0239,0,0,0,0,0,0.0523,0.0563,0.0639,0.0718,0.0806,0.085,0.0923,0.0947,0.0946,0.0891,0.0844,0.0653,0.0336,0.018,-0.0008,-0.0102,-0.0391,-0.0327,-0.0467,-0.0656,-0.0658,-0.0515,0,0,0,0,0,0,0.0541,0.0609,0.0638,0.0738,0.0789,0.0884,0.0931,0.0934,0.0901,0.0866,0.0695,0.0616,0.0298,0.0437,-0.0014,-0.0076,-0.0185,-0.0479,-0.0483,-0.0655,-0.0657,-0.0659,-0.0512,0,0,0,0,0]}]]